Location: Gunung Kajang
(2.4167°N, 113.7167°E)
Time: 23:29:07
(UTC+00:00)

Milstar 3 Cent rocket - Pass Details

Date: 29 May 2022
Orbit: 706 x 5146 km, 28.3° (Epoch: 24 June)

Event Time Altitude Azimuth Distance (km) Brightness Sun altitude
Rises 12:24:15 0° 305° (NW) 8,292 8.5 -27.0°
Reaches altitude 10° 12:31:39 10° 311° (NW) 6,516 7.6 -28.7°
Maximum altitude 12:47:49 40° 15° (NNE) 2,709 4.7 -32.3°
Enters shadow 12:51:07 33° 51° (NE) 2,580 4.4 -33.0°
